User: anonymous
Location: Frydek-Mistek
(49.6830°N, 18.3330°E)
Time: 18:30:27
(UTC+02:00)
Language:

Courier 1B Rocket - Orbit

View from above orbital plane
View from above orbital plane
View from above satellite
View from above satellite

Ground track
Ground track

The orbit data is extracted from the following two-line orbital elements,

1 00059U 60013B   14274.92433624  .00000161  00000-0  10038-3 0  9730
2 00059 028.2471 130.6171 0189242 062.5279 299.4371 13.52898718664470
Epoch (UTC): 01 October 2014 22:11:02
Eccentricity: 0.0189242
inclination: 28.2471°
perigee height: 921 km
apogee height: 1202 km
right ascension of ascending node: 130.6171°
argument of perigee: 62.5279°
revolutions per day: 13.52898718
mean anomaly at epoch: 299.4371°
orbit number at epoch: 66447

The dashed part of the orbit path shows where the satellite is in the earth's shadow,  

DLR